| time (UTC) | temp C | wind direction | speed KPH | gust KPH | rain 1hr cm | rain 24hr cm | rain mn cm | humidity % | barometer mb |
| 20260505213037 | 15 | 205 | 0.0 | 14.5 | 0.00 | 0.00 | 0.00 | 78 | 1003.7 |
| 20260505212537 | 15 | 235 | 0.0 | 14.5 | 0.00 | 0.00 | 0.00 | 77 | 1003.7 |
| 20260505212037 | 15 | 300 | 3.2 | 16.1 | 0.00 | 0.00 | 0.00 | 78 | 1003.8 |
| 20260505211536 | 15 | 198 | 1.6 | 11.3 | 0.00 | 0.00 | 0.00 | 79 | 1003.9 |
| 20260505211035 | 15 | 249 | 3.2 | 11.3 | 0.00 | 0.00 | 0.00 | 80 | 1004.1 |
| 20260505210536 | 16 | 251 | 1.6 | 14.5 | 0.00 | 0.00 | 0.00 | 81 | 1004.2 |
| 20260505210035 | 15 | 261 | 6.4 | 14.5 | 0.00 | 0.00 | 0.00 | 81 | 1004.3 |
| 20260505205537 | 16 | 244 | 3.2 | 9.7 | 0.00 | 0.00 | 0.00 | 83 | 1004.0 |
| 20260505205036 | 16 | 232 | 1.6 | 8.0 | 0.00 | 0.00 | 0.00 | 84 | 1004.2 |
| 20260505204535 | 15 | 164 | 1.6 | 9.7 | 0.00 | 0.00 | 0.00 | 85 | 1004.1 |
| 20260505204034 | 15 | 303 | 0.0 | 9.7 | 0.00 | 0.00 | 0.00 | 86 | 1004.2 |
| 20260505203534 | 15 | 247 | 0.0 | 6.4 | 0.00 | 0.00 | 0.00 | 86 | 1004.2 |
| 20260505203036 | 15 | 296 | 1.6 | 12.9 | 0.00 | 0.00 | 0.00 | 86 | 1004.1 |
| 20260505202534 | 15 | 266 | 1.6 | 12.9 | 0.00 | 0.00 | 0.00 | 86 | 1004.1 |
| 20260505202034 | 15 | 211 | 3.2 | 9.7 | 0.00 | 0.00 | 0.00 | 87 | 1004.1 |
| 20260505201533 | 14 | 303 | 1.6 | 16.1 | 0.00 | 0.00 | 0.00 | 86 | 1003.9 |
| 20260505201032 | 14 | 213 | 0.0 | 16.1 | 0.00 | 0.00 | 0.00 | 85 | 1003.9 |
| 20260505200532 | 14 | 259 | 0.0 | 12.9 | 0.00 | 0.00 | 0.00 | 83 | 1003.9 |
| 20260505200034 | 15 | 252 | 1.6 | 12.9 | 0.00 | 0.00 | 0.00 | 81 | 1003.7 |
| 20260505195531 | 15 | 210 | 0.0 | 8.0 | 0.00 | 0.00 | 0.00 | 79 | 1004.7 |
| 20260505195030 | 15 | 205 | 1.6 | 17.7 | 0.00 | 0.00 | 0.00 | 77 | 1004.3 |
| 20260505194530 | 16 | 304 | 3.2 | 37.0 | 0.00 | 0.00 | 0.00 | 75 | 1004.2 |
| 20260505194032 | 16 | 267 | 19.3 | 37.0 | 0.00 | 0.00 | 0.00 | 72 | 1003.8 |
| 20260505193530 | 17 | 265 | 12.9 | 20.9 | 0.00 | 0.00 | 0.00 | 77 | 1003.6 |
| 20260505193030 | 17 | 303 | 4.8 | 8.0 | 0.00 | 0.00 | 0.00 | 76 | 1003.0 |
| 20260505192529 | 17 | 309 | 0.0 | 4.8 | 0.00 | 0.00 | 0.00 | 76 | 1002.6 |
| 20260505192029 | 17 | 301 | 0.0 | 8.0 | 0.00 | 0.00 | 0.00 | 76 | 1002.6 |
| 20260505191528 | 17 | 309 | 1.6 | 8.0 | 0.00 | 0.00 | 0.00 | 77 | 1002.6 |
| 20260505191028 | 17 | 284 | 1.6 | 8.0 | 0.00 | 0.00 | 0.00 | 76 | 1002.5 |
| 20260505190530 | 16 | 351 | 1.6 | 12.9 | 0.00 | 0.00 | 0.00 | 78 | 1002.6 |
| 20260505190028 | 16 | 298 | 0.0 | 12.9 | 0.00 | 0.00 | 0.00 | 79 | 1002.8 |
| 20260505185527 | 15 | 189 | 6.4 | 16.1 | 0.00 | 0.00 | 0.00 | 80 | 1002.8 |
| 20260505185027 | 15 | 209 | 4.8 | 11.3 | 0.00 | 0.00 | 0.00 | 82 | 1002.9 |
| 20260505184528 | 15 | 329 | 6.4 | 12.9 | 0.00 | 0.00 | 0.00 | 82 | 1003.2 |
| 20260505184026 | 15 | 292 | 1.6 | 17.7 | 0.00 | 0.00 | 0.00 | 81 | 1003.2 |
| 20260505183526 | 15 | 211 | 6.4 | 17.7 | 0.00 | 0.00 | 0.00 | 81 | 1003.3 |
| 20260505183040 | 15 | 181 | 8.0 | 17.7 | 0.00 | 0.00 | 0.00 | 79 | 1003.1 |
| 20260505182524 | 16 | 28 | 3.2 | 41.8 | 0.00 | 0.00 | 0.00 | 75 | 1003.7 |
| 20260505182022 | 17 | 292 | 6.4 | 41.8 | 0.00 | 0.00 | 0.00 | 70 | 1004.3 |
| 20260505181522 | 18 | 188 | 9.7 | 38.6 | 0.00 | 0.00 | 0.00 | 56 | 1003.7 |
| 20260505181021 | 18 | 229 | 3.2 | 6.4 | 0.00 | 0.00 | 0.00 | 63 | 1003.0 |
| 20260505180521 | 18 | 92 | 0.0 | 11.3 | 0.00 | 0.00 | 0.00 | 61 | 1002.7 |
| 20260505180021 | 18 | 148 | 3.2 | 9.7 | 0.00 | 0.00 | 0.00 | 61 | 1002.6 |
| 20260505175521 | 19 | 213 | 0.0 | 19.3 | 0.00 | 0.00 | 0.00 | 58 | 1002.6 |
| 20260505175020 | 20 | 256 | 8.0 | 25.7 | 0.00 | 0.00 | 0.00 | 52 | 1002.5 |
| 20260505174520 | 22 | 287 | 8.0 | 30.6 | 0.00 | 0.00 | 0.00 | 42 | 1002.9 |
| 20260505174020 | 22 | 183 | 4.8 | 29.0 | 0.00 | 0.00 | 0.00 | 37 | 1002.7 |
| 20260505173519 | 22 | 265 | 8.0 | 33.8 | 0.00 | 0.00 | 0.00 | 36 | 1002.6 |
| 20260505173022 | 23 | 196 | 9.7 | 33.8 | 0.00 | 0.00 | 0.00 | 36 | 1002.9 |
| 20260505172522 | 23 | 24 | 9.7 | 25.7 | 0.00 | 0.00 | 0.00 | 35 | 1002.7 |
| 20260505172019 | 24 | 173 | 8.0 | 30.6 | 0.00 | 0.00 | 0.00 | 36 | 1002.6 |
| 20260505171517 | 23 | 198 | 8.0 | 30.6 | 0.00 | 0.00 | 0.00 | 37 | 1002.6 |
| 20260505171017 | 23 | 248 | 9.7 | 27.4 | 0.00 | 0.00 | 0.00 | 38 | 1002.4 |
| 20260505170517 | 23 | 300 | 8.0 | 27.4 | 0.00 | 0.00 | 0.00 | 37 | 1002.4 |
| 20260505170018 | 23 | 204 | 4.8 | 29.0 | 0.00 | 0.00 | 0.00 | 36 | 1002.6 |
| 20260505165516 | 23 | 233 | 11.3 | 29.0 | 0.00 | 0.00 | 0.00 | 36 | 1002.5 |
| 20260505165016 | 23 | 13 | 9.7 | 24.1 | 0.00 | 0.00 | 0.00 | 36 | 1002.5 |
| 20260505164517 | 23 | 290 | 8.0 | 24.1 | 0.00 | 0.00 | 0.00 | 36 | 1002.7 |
| 20260505164015 | 23 | 224 | 4.8 | 32.2 | 0.00 | 0.00 | 0.00 | 37 | 1002.7 |
| 20260505163515 | 23 | 196 | 12.9 | 32.2 | 0.00 | 0.00 | 0.00 | 36 | 1002.8 |
| 20260505163015 | 23 | 225 | 12.9 | 32.2 | 0.00 | 0.00 | 0.00 | 35 | 1002.9 |
| 20260505162513 | 23 | 232 | 6.4 | 40.2 | 0.00 | 0.00 | 0.00 | 36 | 1003.0 |
| 20260505162014 | 23 | 250 | 14.5 | 41.8 | 0.00 | 0.00 | 0.00 | 37 | 1003.0 |
| 20260505161513 | 23 | 197 | 12.9 | 24.1 | 0.00 | 0.00 | 0.00 | 36 | 1003.1 |
| 20260505161012 | 23 | 239 | 9.7 | 32.2 | 0.00 | 0.00 | 0.00 | 38 | 1002.9 |
| 20260505160512 | 23 | 284 | 12.9 | 32.2 | 0.00 | 0.00 | 0.00 | 36 | 1002.9 |
| 20260505153004 | 21 | 198 | 16.1 | 38.6 | 0.00 | 0.00 | 0.00 | 40 | 1003.1 |
| 20260505152502 | 21 | 209 | 16.1 | 35.4 | 0.00 | 0.00 | 0.00 | 41 | 1003.3 |
| 20260505152002 | 21 | 206 | 16.1 | 35.4 | 0.00 | 0.00 | 0.00 | 42 | 1003.3 |
| 20260505151500 | 21 | 212 | 17.7 | 35.4 | 0.00 | 0.00 | 0.00 | 42 | 1003.4 |
| 20260505151100 | 21 | 237 | 12.9 | 30.6 | 0.00 | 0.00 | 0.00 | 43 | 1003.4 |
| 20260505150559 | 21 | 187 | 8.0 | 22.5 | 0.00 | 0.00 | 0.00 | 45 | 1003.5 |
| 20260505140545 | 19 | 230 | 9.7 | 29.0 | 0.00 | 0.00 | 0.00 | 49 | 1003.8 |
| 20260505125024 | 16 | 201 | 6.4 | 19.3 | 0.00 | 0.00 | 0.00 | 58 | 1004.6 |
| 20260505124523 | 16 | 213 | 8.0 | 25.7 | 0.00 | 0.00 | 0.00 | 59 | 1004.7 |
| 20260505124020 | 16 | 199 | 8.0 | 25.7 | 0.00 | 0.00 | 0.00 | 60 | 1004.8 |
| 20260505123525 | 16 | 235 | 3.2 | 29.0 | 0.00 | 0.00 | 0.00 | 59 | 1004.6 |
| 20260505123019 | 16 | 266 | 9.7 | 29.0 | 0.00 | 0.00 | 0.00 | 59 | 1004.6 |
| 20260505122518 | 16 | 209 | 8.0 | 25.7 | 0.00 | 0.00 | 0.00 | 59 | 1004.5 |
| 20260505122021 | 15 | 207 | 14.5 | 25.7 | 0.00 | 0.00 | 0.00 | 59 | 1004.5 |
| 20260505121516 | 15 | 206 | 9.7 | 27.4 | 0.00 | 0.00 | 0.00 | 60 | 1004.4 |
| 20260505121014 | 15 | 167 | 8.0 | 20.9 | 0.00 | 0.00 | 0.00 | 61 | 1004.3 |
| 20260505120515 | 15 | 200 | 4.8 | 20.9 | 0.00 | 0.00 | 0.00 | 62 | 1004.2 |
| 20260505120012 | 15 | 188 | 6.4 | 20.9 | 0.00 | 0.00 | 0.00 | 62 | 1004.1 |
| 20260505115513 | 15 | 231 | 8.0 | 29.0 | 0.00 | 0.00 | 0.00 | 62 | 1003.9 |
| 20260505115013 | 15 | 173 | 12.9 | 22.5 | 0.00 | 0.00 | 0.00 | 60 | 1004.0 |
| 20260505114512 | 15 | 194 | 6.4 | 22.5 | 0.00 | 0.00 | 0.00 | 60 | 1003.9 |
| 20260505114010 | 15 | 134 | 6.4 | 29.0 | 0.00 | 0.00 | 0.00 | 60 | 1003.9 |
| 20260505113514 | 15 | 216 | 9.7 | 29.0 | 0.00 | 0.00 | 0.00 | 60 | 1004.1 |
| 20260505113011 | 14 | 197 | 8.0 | 22.5 | 0.00 | 0.00 | 0.00 | 60 | 1004.3 |
| 20260505112511 | 14 | 212 | 6.4 | 33.8 | 0.00 | 0.00 | 0.00 | 61 | 1004.3 |
| 20260505112010 | 14 | 205 | 14.5 | 33.8 | 0.00 | 0.00 | 0.00 | 60 | 1004.3 |
| 20260505111510 | 14 | 198 | 14.5 | 33.8 | 0.00 | 0.00 | 0.00 | 60 | 1004.3 |
| 20260505111009 | 14 | 194 | 14.5 | 33.8 | 0.00 | 0.00 | 0.00 | 61 | 1004.1 |
| 20260505110506 | 14 | 228 | 9.7 | 27.4 | 0.00 | 0.00 | 0.00 | 60 | 1004.1 |
| 20260505102002 | 13 | 180 | 9.7 | 19.3 | 0.00 | 0.00 | 0.00 | 65 | 1003.5 |
| 20260505101600 | 13 | 146 | 9.7 | 20.9 | 0.00 | 0.00 | 0.00 | 64 | 1003.6 |
| 20260505101058 | 13 | 188 | 8.0 | 17.7 | 0.00 | 0.00 | 0.00 | 64 | 1003.5 |
| 20260505100557 | 13 | 190 | 6.4 | 17.7 | 0.00 | 0.00 | 0.00 | 65 | 1003.6 |
| 20260505100056 | 12 | 184 | 6.4 | 14.5 | 0.00 | 0.00 | 0.00 | 66 | 1003.7 |
| 20260505095556 | 12 | 196 | 3.2 | 12.9 | 0.00 | 0.00 | 0.00 | 67 | 1003.7 |
| 20260505095056 | 12 | 176 | 4.8 | 12.9 | 0.00 | 0.00 | 0.00 | 68 | 1003.7 |
| 20260505094554 | 12 | 168 | 4.8 | 14.5 | 0.00 | 0.00 | 0.00 | 69 | 1003.9 |
| 20260505094055 | 12 | 180 | 6.4 | 16.1 | 0.00 | 0.00 | 0.00 | 70 | 1004.0 |
| 20260505093553 | 12 | 183 | 9.7 | 16.1 | 0.00 | 0.00 | 0.00 | 70 | 1004.0 |
| 20260505093053 | 12 | 183 | 6.4 | 12.9 | 0.00 | 0.00 | 0.00 | 70 | 1004.0 |
| 20260505092555 | 12 | 177 | 3.2 | 14.5 | 0.00 | 0.00 | 0.00 | 70 | 1004.1 |
| 20260505092050 | 12 | 169 | 4.8 | 11.3 | 0.00 | 0.00 | 0.00 | 70 | 1004.2 |
| 20260505091604 | 13 | 211 | 4.8 | 14.5 | 0.00 | 0.00 | 0.00 | 68 | 1004.1 |
| 20260505091048 | 13 | 190 | 3.2 | 19.3 | 0.00 | 0.00 | 0.00 | 66 | 1004.1 |
| 20260505090546 | 14 | 189 | 9.7 | 22.5 | 0.00 | 0.00 | 0.00 | 57 | 1004.4 |
| 20260505090049 | 14 | 221 | 9.7 | 22.5 | 0.00 | 0.00 | 0.00 | 56 | 1004.1 |
| 20260505085545 | 13 | 201 | 8.0 | 27.4 | 0.00 | 0.00 | 0.00 | 54 | 1003.9 |
| 20260505085045 | 13 | 148 | 9.7 | 27.4 | 0.00 | 0.00 | 0.00 | 54 | 1003.9 |
| 20260505084548 | 13 | 188 | 9.7 | 17.7 | 0.00 | 0.00 | 0.00 | 54 | 1003.8 |
| 20260505084044 | 13 | 173 | 8.0 | 19.3 | 0.00 | 0.00 | 0.00 | 54 | 1003.9 |
| 20260505083543 | 13 | 196 | 8.0 | 19.3 | 0.00 | 0.00 | 0.00 | 53 | 1003.9 |
| 20260505083044 | 13 | 182 | 6.4 | 16.1 | 0.00 | 0.00 | 0.00 | 53 | 1003.9 |
| 20260505082543 | 13 | 169 | 8.0 | 14.5 | 0.00 | 0.00 | 0.00 | 53 | 1003.9 |
| 20260505082043 | 13 | 182 | 8.0 | 16.1 | 0.00 | 0.00 | 0.00 | 53 | 1003.8 |
| 20260505081543 | 13 | 215 | 4.8 | 16.1 | 0.00 | 0.00 | 0.00 | 53 | 1004.1 |
| 20260505081043 | 13 | 186 | 3.2 | 12.9 | 0.00 | 0.00 | 0.00 | 53 | 1004.1 |
| 20260505080545 | 13 | 211 | 4.8 | 11.3 | 0.00 | 0.00 | 0.00 | 53 | 1004.2 |
| 20260505080044 | 13 | 210 | 4.8 | 11.3 | 0.00 | 0.00 | 0.00 | 55 | 1004.3 |
| 20260505075545 | 13 | 209 | 3.2 | 8.0 | 0.00 | 0.00 | 0.00 | 56 | 1004.4 |
| 20260505075042 | 13 | 173 | 3.2 | 9.7 | 0.00 | 0.00 | 0.00 | 56 | 1004.6 |
| 20260505074541 | 13 | 50 | 0.0 | 16.1 | 0.00 | 0.00 | 0.00 | 56 | 1004.6 |
| 20260505074039 | 13 | 5 | 1.6 | 16.1 | 0.00 | 0.00 | 0.00 | 55 | 1004.6 |
| 20260505073539 | 13 | 253 | 3.2 | 17.7 | 0.00 | 0.00 | 0.00 | 55 | 1004.5 |
| 20260505073043 | 13 | 205 | 9.7 | 22.5 | 0.00 | 0.00 | 0.00 | 55 | 1004.4 |
| 20260505072640 | 13 | 244 | 6.4 | 22.5 | 0.00 | 0.00 | 0.00 | 55 | 1004.3 |
| 20260505072038 | 14 | 229 | 11.3 | 25.7 | 0.00 | 0.00 | 0.00 | 51 | 1004.4 |
| 20260505071536 | 14 | 217 | 14.5 | 25.7 | 0.00 | 0.00 | 0.00 | 50 | 1004.2 |
| 20260505071035 | 14 | 217 | 12.9 | 30.6 | 0.00 | 0.00 | 0.00 | 50 | 1004.0 |
| 20260505070536 | 14 | 194 | 14.5 | 30.6 | 0.00 | 0.00 | 0.00 | 50 | 1004.0 |
| 20260505070041 | 14 | 180 | 17.7 | 25.7 | 0.00 | 0.00 | 0.00 | 49 | 1003.9 |
| 20260505065535 | 14 | 182 | 14.5 | 29.0 | 0.00 | 0.00 | 0.00 | 50 | 1003.8 |
| 20260505065034 | 14 | 145 | 14.5 | 33.8 | 0.00 | 0.00 | 0.00 | 49 | 1003.8 |
| 20260505064535 | 14 | 190 | 16.1 | 33.8 | 0.00 | 0.00 | 0.00 | 49 | 1003.8 |
| 20260505064032 | 14 | 178 | 12.9 | 33.8 | 0.00 | 0.00 | 0.00 | 50 | 1003.8 |
| 20260505063532 | 14 | 215 | 20.9 | 35.4 | 0.00 | 0.00 | 0.00 | 49 | 1003.8 |
| 20260505063031 | 14 | 182 | 11.3 | 35.4 | 0.00 | 0.00 | 0.00 | 50 | 1003.9 |
| 20260505062532 | 14 | 201 | 16.1 | 37.0 | 0.00 | 0.00 | 0.00 | 51 | 1003.8 |
| 20260505062029 | 14 | 162 | 16.1 | 35.4 | 0.00 | 0.00 | 0.00 | 49 | 1003.8 |
| 20260505061538 | 14 | 159 | 16.1 | 27.4 | 0.00 | 0.00 | 0.00 | 49 | 1003.9 |
| 20260505061027 | 14 | 186 | 14.5 | 25.7 | 0.00 | 0.00 | 0.00 | 49 | 1003.9 |
| 20260505060527 | 14 | 208 | 16.1 | 27.4 | 0.00 | 0.00 | 0.00 | 49 | 1004.1 |
| 20260505060026 | 14 | 223 | 12.9 | 27.4 | 0.00 | 0.00 | 0.00 | 49 | 1004.0 |
| 20260505055525 | 14 | 171 | 11.3 | 29.0 | 0.00 | 0.00 | 0.00 | 49 | 1004.0 |
| 20260505055026 | 14 | 177 | 17.7 | 29.0 | 0.00 | 0.00 | 0.00 | 49 | 1004.1 |
| 20260505054533 | 14 | 163 | 16.1 | 29.0 | 0.00 | 0.00 | 0.00 | 48 | 1004.0 |
| 20260505054025 | 14 | 201 | 12.9 | 29.0 | 0.00 | 0.00 | 0.00 | 48 | 1004.1 |
| 20260505053527 | 15 | 177 | 12.9 | 33.8 | 0.00 | 0.00 | 0.00 | 47 | 1004.1 |
| 20260505053023 | 15 | 152 | 17.7 | 33.8 | 0.00 | 0.00 | 0.00 | 47 | 1004.2 |
| 20260505052521 | 15 | 173 | 16.1 | 38.6 | 0.00 | 0.00 | 0.00 | 47 | 1004.1 |
| 20260505052020 | 15 | 202 | 12.9 | 41.8 | 0.00 | 0.00 | 0.00 | 46 | 1004.1 |
| 20260505051521 | 15 | 209 | 19.3 | 41.8 | 0.00 | 0.00 | 0.00 | 46 | 1004.2 |
| 20260505051019 | 15 | 166 | 12.9 | 32.2 | 0.00 | 0.00 | 0.00 | 46 | 1004.3 |
| 20260505050521 | 15 | 192 | 12.9 | 29.0 | 0.00 | 0.00 | 0.00 | 47 | 1004.3 |
| 20260505041517 | 15 | 185 | 9.7 | 24.1 | 0.00 | 0.00 | 0.00 | 46 | 1004.3 |
| 20260505041008 | 15 | 198 | 12.9 | 25.7 | 0.00 | 0.00 | 0.00 | 46 | 1004.2 |
| 20260505040507 | 15 | 182 | 11.3 | 25.7 | 0.00 | 0.00 | 0.00 | 46 | 1004.3 |
| 20260505040007 | 15 | 167 | 11.3 | 22.5 | 0.00 | 0.00 | 0.00 | 46 | 1004.3 |
| 20260505035511 | 15 | 177 | 12.9 | 22.5 | 0.00 | 0.00 | 0.00 | 45 | 1004.3 |
| 20260505035006 | 15 | 211 | 11.3 | 27.4 | 0.00 | 0.00 | 0.00 | 45 | 1004.2 |
| 20260505034505 | 15 | 191 | 11.3 | 27.4 | 0.00 | 0.00 | 0.00 | 45 | 1004.1 |
| 20260505034005 | 15 | 168 | 12.9 | 25.7 | 0.00 | 0.00 | 0.00 | 44 | 1004.1 |
| 20260505033506 | 15 | 155 | 9.7 | 25.7 | 0.00 | 0.00 | 0.00 | 44 | 1004.1 |
| 20260505033005 | 15 | 131 | 11.3 | 24.1 | 0.00 | 0.00 | 0.00 | 44 | 1004.1 |
| 20260505032505 | 15 | 195 | 6.4 | 22.5 | 0.00 | 0.00 | 0.00 | 44 | 1004.3 |
| 20260505032006 | 15 | 174 | 11.3 | 24.1 | 0.00 | 0.00 | 0.00 | 44 | 1004.3 |
| 20260505031507 | 15 | 188 | 12.9 | 22.5 | 0.00 | 0.00 | 0.00 | 43 | 1004.3 |
| 20260505031007 | 15 | 148 | 11.3 | 19.3 | 0.00 | 0.00 | 0.00 | 43 | 1004.3 |
| 20260505030503 | 15 | 192 | 9.7 | 22.5 | 0.00 | 0.00 | 0.00 | 42 | 1004.3 |
| 20260505030003 | 15 | 177 | 12.9 | 29.0 | 0.00 | 0.00 | 0.00 | 42 | 1004.3 |
| 20260505025504 | 16 | 133 | 11.3 | 29.0 | 0.00 | 0.00 | 0.00 | 41 | 1004.4 |
| 20260505025004 | 16 | 202 | 12.9 | 22.5 | 0.00 | 0.00 | 0.00 | 41 | 1004.4 |
| 20260505024504 | 16 | 187 | 11.3 | 22.5 | 0.00 | 0.00 | 0.00 | 41 | 1004.4 |
| 20260505024003 | 16 | 151 | 9.7 | 22.5 | 0.00 | 0.00 | 0.00 | 41 | 1004.4 |
| 20260505023503 | 16 | 186 | 9.7 | 17.7 | 0.00 | 0.00 | 0.00 | 41 | 1004.6 |
| 20260505023008 | 16 | 181 | 8.0 | 17.7 | 0.00 | 0.00 | 0.00 | 40 | 1004.5 |
| 20260505022502 | 16 | 182 | 9.7 | 20.9 | 0.00 | 0.00 | 0.00 | 40 | 1004.6 |
| 20260505022003 | 16 | 186 | 8.0 | 17.7 | 0.00 | 0.00 | 0.00 | 40 | 1004.6 |
| 20260505021502 | 16 | 176 | 8.0 | 17.7 | 0.00 | 0.00 | 0.00 | 40 | 1004.5 |
| 20260505021001 | 16 | 139 | 8.0 | 14.5 | 0.00 | 0.00 | 0.00 | 39 | 1004.7 |
| 20260505020501 | 16 | 175 | 6.4 | 12.9 | 0.00 | 0.00 | 0.00 | 40 | 1004.6 |
| 20260505020002 | 16 | 174 | 6.4 | 17.7 | 0.00 | 0.00 | 0.00 | 40 | 1004.7 |
| 20260505015502 | 16 | 163 | 8.0 | 17.7 | 0.00 | 0.00 | 0.00 | 39 | 1004.8 |
| 20260505015100 | 16 | 165 | 8.0 | 16.1 | 0.00 | 0.00 | 0.00 | 39 | 1004.8 |
| 20260505014610 | 16 | 164 | 6.4 | 17.7 | 0.00 | 0.00 | 0.00 | 39 | 1004.8 |
| 20260505014100 | 16 | 136 | 4.8 | 17.7 | 0.00 | 0.00 | 0.00 | 38 | 1004.8 |
| 20260505013559 | 16 | 187 | 6.4 | 14.5 | 0.00 | 0.00 | 0.00 | 38 | 1004.7 |
| 20260505013059 | 16 | 187 | 6.4 | 14.5 | 0.00 | 0.00 | 0.00 | 38 | 1004.8 |
| 20260505013001 | 16 | 155 | 6.4 | 11.3 | 0.00 | 0.00 | 0.00 | 38 | 1004.8 |
| 20260505012600 | 16 | 156 | 4.8 | 12.9 | 0.00 | 0.00 | 0.00 | 38 | 1004.8 |
| 20260505012058 | 16 | 165 | 3.2 | 9.7 | 0.00 | 0.00 | 0.00 | 39 | 1004.8 |
| 20260505011606 | 16 | 167 | 4.8 | 8.0 | 0.00 | 0.00 | 0.00 | 38 | 1004.7 |
| 20260505011057 | 16 | 155 | 4.8 | 9.7 | 0.00 | 0.00 | 0.00 | 38 | 1004.8 |
| 20260505010557 | 16 | 151 | 4.8 | 8.0 | 0.00 | 0.00 | 0.00 | 38 | 1004.7 |
| 20260505010057 | 16 | 142 | 4.8 | 12.9 | 0.00 | 0.00 | 0.00 | 38 | 1004.7 |
| 20260505005557 | 16 | 158 | 4.8 | 14.5 | 0.00 | 0.00 | 0.00 | 38 | 1004.5 |
| 20260505005059 | 16 | 150 | 3.2 | 9.7 | 0.00 | 0.00 | 0.00 | 38 | 1004.5 |
| 20260505004557 | 16 | 178 | 3.2 | 8.0 | 0.00 | 0.00 | 0.00 | 38 | 1004.5 |
| 20260505004057 | 16 | 142 | 3.2 | 9.7 | 0.00 | 0.00 | 0.00 | 37 | 1004.5 |
| 20260505003557 | 16 | 123 | 3.2 | 8.0 | 0.00 | 0.00 | 0.00 | 38 | 1004.6 |
| 20260505003056 | 16 | 169 | 3.2 | 8.0 | 0.00 | 0.00 | 0.00 | 37 | 1004.5 |
| 20260505002556 | 16 | 182 | 3.2 | 9.7 | 0.00 | 0.00 | 0.00 | 37 | 1004.5 |
| 20260505002056 | 16 | 191 | 4.8 | 9.7 | 0.00 | 0.00 | 0.00 | 37 | 1004.4 |
| 20260505001557 | 16 | 181 | 3.2 | 9.7 | 0.00 | 0.00 | 0.00 | 36 | 1004.3 |
| 20260505001055 | 17 | 148 | 3.2 | 9.7 | 0.00 | 0.00 | 0.00 | 36 | 1004.2 |
| 20260505000555 | 17 | 157 | 4.8 | 9.7 | 0.00 | 0.00 | 0.00 | 35 | 1004.0 |
| 20260505000114 | 17 | 170 | 3.2 | 12.9 | 0.00 | 0.00 | 0.00 | 35 | 1004.1 |
| 20260504235557 | 17 | 163 | 3.2 | 9.7 | 0.00 | 0.00 | 0.00 | 34 | 1004.1 |
| 20260504235055 | 17 | 163 | 1.6 | 9.7 | 0.00 | 0.00 | 0.00 | 34 | 1004.2 |
| 20260504234555 | 18 | 188 | 3.2 | 11.3 | 0.00 | 0.00 | 0.00 | 32 | 1004.1 |
| 20260504234055 | 18 | 184 | 6.4 | 11.3 | 0.00 | 0.00 | 0.00 | 32 | 1004.1 |
| 20260504233554 | 18 | 205 | 4.8 | 9.7 | 0.00 | 0.00 | 0.00 | 32 | 1004.1 |
| 20260504233108 | 18 | 77 | 3.2 | 12.9 | 0.00 | 0.00 | 0.00 | 33 | 1004.1 |
| 20260504232554 | 18 | 191 | 4.8 | 12.9 | 0.00 | 0.00 | 0.00 | 33 | 1004.0 |
| 20260504232053 | 18 | 205 | 0.0 | 9.7 | 0.00 | 0.00 | 0.00 | 33 | 1004.1 |
| 20260504231553 | 18 | 202 | 3.2 | 11.3 | 0.00 | 0.00 | 0.00 | 33 | 1004.1 |
| 20260504231053 | 18 | 203 | 3.2 | 11.3 | 0.00 | 0.00 | 0.00 | 32 | 1004.1 |
| 20260504230553 | 18 | 221 | 1.6 | 8.0 | 0.00 | 0.00 | 0.00 | 32 | 1004.2 |
| 20260504230053 | 18 | 244 | 1.6 | 17.7 | 0.00 | 0.00 | 0.00 | 32 | 1004.1 |
| 20260504225553 | 18 | 265 | 4.8 | 17.7 | 0.00 | 0.00 | 0.00 | 32 | 1004.0 |
| 20260504225053 | 18 | 185 | 6.4 | 17.7 | 0.00 | 0.00 | 0.00 | 30 | 1003.9 |
| 20260504224601 | 18 | 215 | 9.7 | 17.7 | 0.00 | 0.00 | 0.00 | 31 | 1003.9 |
| 20260504224052 | 18 | 164 | 3.2 | 11.3 | 0.00 | 0.00 | 0.00 | 32 | 1003.9 |
| 20260504223551 | 19 | 201 | 3.2 | 22.5 | 0.00 | 0.00 | 0.00 | 31 | 1003.9 |
| 20260504223112 | 19 | 226 | 4.8 | 22.5 | 0.00 | 0.00 | 0.00 | 30 | 1003.9 |
| 20260504222552 | 19 | 229 | 8.0 | 16.1 | 0.00 | 0.00 | 0.00 | 31 | 1004.0 |
| 20260504222052 | 19 | 213 | 3.2 | 11.3 | 0.00 | 0.00 | 0.00 | 32 | 1004.0 |
| 20260504221550 | 19 | 185 | 3.2 | 12.9 | 0.00 | 0.00 | 0.00 | 31 | 1004.0 |
| 20260504221053 | 18 | 208 | 4.8 | 14.5 | 0.00 | 0.00 | 0.00 | 31 | 1004.1 |
| 20260504220550 | 18 | 247 | 4.8 | 16.1 | 0.00 | 0.00 | 0.00 | 32 | 1004.1 |
| 20260504220050 | 18 | 196 | 4.8 | 24.1 | 0.00 | 0.00 | 0.00 | 32 | 1004.1 |
| 20260504215550 | 19 | 217 | 6.4 | 24.1 | 0.00 | 0.00 | 0.00 | 33 | 1004.1 |
| 20260504215050 | 19 | 294 | 6.4 | 17.7 | 0.00 | 0.00 | 0.00 | 31 | 1004.1 |
| 20260504214550 | 18 | 217 | 4.8 | 20.9 | 0.00 | 0.00 | 0.00 | 32 | 1004.1 |
| 20260504214050 | 18 | 199 | 6.4 | 20.9 | 0.00 | 0.00 | 0.00 | 33 | 1004.2 |
| 20260504213548 | 19 | 201 | 6.4 | 14.5 | 0.00 | 0.00 | 0.00 | 32 | 1004.1 |